Погода в Джексоне

США     32°18′31″N   90°11′35″W
темп.,
°C
ветер,
м/с
пор.,
м/с
влажн.,
%
обл.,
%
осадки,
мм/ч
давл.,
гПа
погр.,
м
15 мая, сб
сб1501:00+15в23760 0.0 102255
04:00+14ююв23860 0.0 102368
07:00+14юв23780 0.0 102479
10:00+22юв35575 0.0 1024616
13:00+25ююв344675 0.0 10221737
16:00+26ююв234662 0.0 10201932
19:00+23ююв246920 0.0 1020112
22:00+19юв3668100 0.0 1020119
16 мая, вс
вс1601:00+16ююв288799 0.0 1020197
04:00+16ююв2788100 0.0 1021178
07:00+16юв28845 0.0 1022218
10:00+22ююв47555 0.0 1023777
13:00+26ююв46425 0.0 10211441
16:00+27ююв36446 0.0 10181794
19:00+23ю2270100 0.0 101827
22:00+20ююв41173100 0.0 1019389
17 мая, пн
пн1701:00+19ююв41284100 0.0 1018503
04:00+19ююв41283100 0.0 1018483
07:00+19юв31083100 0.0 1019429
10:00+23ююв5870100 0.0 1019733
13:00+27ююв575537 0.0 10171712
16:00+27ю466198 0.8 10161347
19:00+22ю2589100 3.4 1016119
22:00+19ссз1299100 10.8 101891
18 мая, вт
вт1801:00+19ююз51097100 28.8 1018364
04:00+19юв1298100 10.7 101780
07:00+19ююв3999100 11.8 1018327
10:00+21юв4991100 0.8 1018680
13:00+27ююв575961 0.9 10171726
16:00+29ююв475326 0.0 10152032
19:00+24ю397688 0.2 1015287
22:00+21юв4137896 0.1 1017675
19 мая, ср
ср1901:00+20юв413868 0.1 1017670
04:00+18юв4149373 0.0 1017586
07:00+19юв414880 0.0 1019847
10:00+24ююв6107499 0.1 10201212
13:00+26юв696833 0.6 10191192
16:00+27ююв6106322 1.3 10181461
19:00+22ююв411905 2.9 1018534
22:00+20юв313955 0.0 1020595